• In India
  • List of Countries
  • For 7 days
  • Water Temperature
  • Satellite Maps
  • Weather Map
  • Weather Widgets
  • user-avatar
    Login

    Hourly Weather Zaluzhzhya

    Today, 18 January, Friday

    Time Temperature Precipitation Wind Pressure Humidity
    00:00 0°C° 0 mm 3 mps 720 mmHg 84%
    01:00 0°C° 0 mm 3 mps 720 mmHg 84%
    02:00 -1°C° 0 mm 2 mps 720 mmHg 86%
    03:00 +1°C° 0.2 mm 2 mps 720 mmHg 88%
    04:00 +1°C° 0.2 mm 2 mps 720 mmHg 91%
    05:00 0°C° 0.2 mm 3 mps 719 mmHg 93%
    06:00 +1°C° 0.5 mm 2 mps 720 mmHg 94%
    07:00 +1°C° 0.5 mm 2 mps 720 mmHg 95%
    08:00 +1°C° 0 mm 2 mps 720 mmHg 96%
    09:00 0°C° 0.4 mm 3 mps 720 mmHg 97%
    10:00 0°C° 0.4 mm 3 mps 720 mmHg 98%
    11:00 0°C° 0.4 mm 3 mps 721 mmHg 99%
    12:00 0°C° 0.2 mm 3 mps 721 mmHg 99%
    13:00 0°C° 0.2 mm 3 mps 721 mmHg 99%
    14:00 0°C° 0 mm 3 mps 722 mmHg 99%
    15:00 0°C° 0.1 mm 3 mps 722 mmHg 96%
    16:00 -1°C° 0.1 mm 3 mps 723 mmHg 93%
    17:00 -1°C° 0.1 mm 3 mps 723 mmHg 90%
    18:00 -2°C° 0.1 mm 3 mps 724 mmHg 91%
    19:00 -2°C° 0.1 mm 3 mps 724 mmHg 92%
    20:00 -4°C° 0.1 mm 4 mps 725 mmHg 93%
    21:00 -4°C° 0.1 mm 4 mps 726 mmHg 93%
    22:00 -4°C° 0.1 mm 4 mps 726 mmHg 93%
    23:00 -4°C° 0.1 mm 4 mps 727 mmHg 94%

    Tomorrow, 19 January, Saturday

    Time Temperature Precipitation Wind Pressure Humidity
    00:00 -6°C° 0 mm 3 mps 727 mmHg 94%
    01:00 -7°C° 0 mm 3 mps 728 mmHg 95%
    02:00 -8°C° 0 mm 3 mps 728 mmHg 95%
    03:00 -8°C° 0 mm 3 mps 728 mmHg 95%
    04:00 -8°C° 0 mm 2 mps 729 mmHg 95%
    05:00 -8°C° 0 mm 2 mps 729 mmHg 95%
    06:00 -8°C° 0 mm 2 mps 729 mmHg 95%
    07:00 -8°C° 0 mm 2 mps 730 mmHg 96%
    08:00 -9°C° 0 mm 2 mps 730 mmHg 96%
    09:00 -8°C° 0 mm 2 mps 730 mmHg 95%
    10:00 -7°C° 0 mm 2 mps 731 mmHg 95%
    11:00 -6°C° 0 mm 2 mps 731 mmHg 94%
    12:00 -5°C° 0 mm 2 mps 731 mmHg 93%
    13:00 -3°C° 0 mm 1 mps 731 mmHg 91%
    14:00 -2°C° 0 mm 1 mps 731 mmHg 90%
    15:00 -3°C° 0 mm 1 mps 730 mmHg 90%
    16:00 -4°C° 0 mm 1 mps 730 mmHg 91%
    17:00 -6°C° 0 mm 0 mps 730 mmHg 92%
    18:00 -7°C° 0 mm 1 mps 730 mmHg 92%
    19:00 -7°C° 0 mm 1 mps 730 mmHg 91%
    20:00 -7°C° 0 mm 1 mps 730 mmHg 91%
    21:00 -9°C° 0 mm 2 mps 730 mmHg 90%
    22:00 -9°C° 0 mm 2 mps 730 mmHg 90%
    23:00 -9°C° 0 mm 2 mps 730 mmHg 89%

    Day after tomorrow, 20 January, Sunday

    Time Temperature Precipitation Wind Pressure Humidity
    00:00 -9°C° 0 mm 2 mps 730 mmHg 90%
    01:00 -9°C° 0 mm 2 mps 729 mmHg 91%
    02:00 -10°C° 0 mm 3 mps 729 mmHg 92%
    03:00 -9°C° 0 mm 3 mps 729 mmHg 93%
    04:00 -9°C° 0 mm 3 mps 728 mmHg 93%
    05:00 -8°C° 0 mm 3 mps 728 mmHg 94%
    06:00 -8°C° 0 mm 3 mps 728 mmHg 94%
    07:00 -8°C° 0 mm 3 mps 728 mmHg 94%
    08:00 -8°C° 0 mm 3 mps 727 mmHg 94%
    09:00 -7°C° 0 mm 3 mps 727 mmHg 94%
    10:00 -7°C° 0 mm 3 mps 727 mmHg 94%
    11:00 -5°C° 0 mm 2 mps 727 mmHg 94%
    12:00 -5°C° 0 mm 2 mps 727 mmHg 93%
    13:00 -5°C° 0 mm 2 mps 727 mmHg 92%
    14:00 -3°C° 0 mm 1 mps 726 mmHg 92%
    15:00 -3°C° 0 mm 1 mps 726 mmHg 92%
    16:00 -3°C° 0 mm 1 mps 726 mmHg 93%
    17:00 -4°C° 0 mm 1 mps 726 mmHg 94%
    18:00 -4°C° 0.1 mm 1 mps 726 mmHg 95%
    19:00 -4°C° 0.1 mm 1 mps 726 mmHg 95%
    20:00 -4°C° 0.1 mm 1 mps 726 mmHg 96%
    21:00 -4°C° 0.1 mm 1 mps 726 mmHg 96%
    22:00 -6°C° 0.1 mm 2 mps 727 mmHg 96%
    23:00 -6°C° 0.1 mm 2 mps 727 mmHg 96%

    21 January, Monday

    Time Temperature Precipitation Wind Pressure Humidity
    00:00 -6°C° 0 mm 2 mps 727 mmHg 96%
    01:00 -6°C° 0 mm 2 mps 727 mmHg 95%
    02:00 -7°C° 0 mm 2 mps 728 mmHg 95%
    03:00 -7°C° 0 mm 2 mps 728 mmHg 95%
    04:00 -7°C° 0 mm 2 mps 728 mmHg 95%
    05:00 -7°C° 0 mm 2 mps 728 mmHg 95%
    06:00 -8°C° 0 mm 2 mps 728 mmHg 94%
    07:00 -9°C° 0 mm 2 mps 729 mmHg 93%
    08:00 -9°C° 0 mm 2 mps 729 mmHg 93%
    09:00 -8°C° 0 mm 2 mps 729 mmHg 93%
    10:00 -7°C° 0 mm 2 mps 730 mmHg 94%
    11:00 -4°C° 0 mm 1 mps 730 mmHg 94%
    12:00 -5°C° 0 mm 2 mps 730 mmHg 93%
    13:00 -5°C° 0 mm 2 mps 731 mmHg 92%
    14:00 -4°C° 0 mm 2 mps 731 mmHg 91%
    15:00 -3°C° 0 mm 1 mps 731 mmHg 91%
    16:00 -3°C° 0 mm 1 mps 731 mmHg 91%
    17:00 -3°C° 0 mm 1 mps 731 mmHg 90%
    18:00 -4°C° 0 mm 1 mps 731 mmHg 90%
    19:00 -6°C° 0 mm 0 mps 731 mmHg 89%
    20:00 -6°C° 0 mm 0 mps 731 mmHg 88%
    21:00 -7°C° 0 mm 0 mps 731 mmHg 88%
    22:00 -8°C° 0 mm 1 mps 731 mmHg 88%
    23:00 -9°C° 0 mm 1 mps 731 mmHg 89%

    22 January, Tuesday

    Time Temperature Precipitation Wind Pressure Humidity
    00:00 -9°C° 0 mm 1 mps 731 mmHg 90%
    01:00 -9°C° 0 mm 1 mps 730 mmHg 91%
    02:00 -10°C° 0 mm 2 mps 730 mmHg 93%
    03:00 -10°C° 0 mm 2 mps 730 mmHg 94%
    04:00 -10°C° 0 mm 2 mps 729 mmHg 96%
    05:00 -10°C° 0 mm 2 mps 729 mmHg 97%
    06:00 -10°C° 0 mm 2 mps 729 mmHg 97%
    07:00 -10°C° 0 mm 3 mps 728 mmHg 97%
    08:00 -10°C° 0 mm 3 mps 728 mmHg 97%
    09:00 -10°C° 0 mm 3 mps 728 mmHg 97%
    10:00 -9°C° 0 mm 3 mps 728 mmHg 96%
    11:00 -9°C° 0 mm 3 mps 727 mmHg 96%
    12:00 -8°C° 0 mm 3 mps 727 mmHg 96%
    13:00 -8°C° 0 mm 3 mps 726 mmHg 95%
    14:00 -8°C° 0 mm 3 mps 726 mmHg 95%
    15:00 -8°C° 0 mm 3 mps 725 mmHg 95%
    16:00 -8°C° 0 mm 3 mps 725 mmHg 95%
    17:00 -9°C° 0 mm 3 mps 725 mmHg 95%
    18:00 -9°C° 0 mm 3 mps 724 mmHg 95%
    19:00 -9°C° 0 mm 3 mps 724 mmHg 95%
    20:00 -10°C° 0 mm 4 mps 724 mmHg 95%
    21:00 -10°C° 0 mm 4 mps 723 mmHg 94%
    22:00 -10°C° 0 mm 4 mps 723 mmHg 93%
    23:00 -9°C° 0 mm 4 mps 723 mmHg 93%

    23 January, Wednesday

    Time Temperature Precipitation Wind Pressure Humidity
    00:00 -10°C° 0 mm 4 mps 722 mmHg 93%
    01:00 -10°C° 0 mm 4 mps 722 mmHg 93%
    02:00 -11°C° 0 mm 5 mps 721 mmHg 93%
    03:00 -11°C° 0 mm 5 mps 721 mmHg 93%
    04:00 -10°C° 0 mm 5 mps 720 mmHg 93%
    05:00 -10°C° 0 mm 5 mps 719 mmHg 93%
    06:00 -10°C° 0 mm 5 mps 719 mmHg 93%
    07:00 -9°C° 0 mm 6 mps 718 mmHg 93%
    08:00 -9°C° 0 mm 6 mps 718 mmHg 93%
    09:00 -8°C° 0 mm 6 mps 718 mmHg 92%
    10:00 -7°C° 0 mm 7 mps 717 mmHg 91%
    11:00 -6°C° 0 mm 7 mps 717 mmHg 91%
    12:00 -5°C° 0.1 mm 8 mps 717 mmHg 91%
    13:00 -4°C° 0.1 mm 8 mps 716 mmHg 91%
    14:00 -2°C° 0.1 mm 8 mps 716 mmHg 91%
    15:00 -2°C° 0.1 mm 8 mps 716 mmHg 91%
    16:00 -3°C° 0.1 mm 9 mps 715 mmHg 90%
    17:00 -3°C° 0.1 mm 9 mps 715 mmHg 89%
    18:00 -3°C° 0.1 mm 9 mps 715 mmHg 90%
    19:00 -2°C° 0.1 mm 8 mps 715 mmHg 90%
    20:00 -4°C° 0.1 mm 8 mps 715 mmHg 90%
    21:00 -4°C° 0 mm 8 mps 715 mmHg 90%
    22:00 -4°C° 0 mm 8 mps 715 mmHg 91%
    23:00 -4°C° 0 mm 7 mps 715 mmHg 91%
    Show more